Moffett NAS, CA

11:04 AM PDT on September 19, 2017 (GMT -0700)
Moffett Federal Air Field

Weather History for KNUQ - January, 2013

Change the Weather History Date:

Friday, January 11, 2013

  Actual Average Record
Temperature  
Mean Temperature 44 °F 50 °F  
Max Temperature 52 °F 58 °F 71 °F (2009)
Min Temperature 35 °F 43 °F 23 °F (1949)
Degree Days  
Heating Degree Days 21    
Month to date heating degree days 203  
Since 1 July heating degree days 969  
Cooling Degree Days 0    
Month to date cooling degree days 0  
Year to date cooling degree days 0  
Moisture  
Dew Point 35 °F    
Average Humidity 69    
Maximum Humidity 85    
Minimum Humidity 52    
Precipitation  
Precipitation 0.00 in 0.10 in 1.43 in (1952)
Month to date precipitation 0.16 1.11  
Year to date precipitation 0.16 1.11  
Since 1 July precipitation 7.93  
Sea Level Pressure  
Sea Level Pressure 30.21 in    
Wind  
Wind Speed 3 mph (NNW)    
Max Wind Speed 18 mph    
Max Gust Speed 23 mph    
Visibility 10 miles    
Events      
T = Trace of Precipitation, MM = Missing Value Source: NWS Daily Summary

Daily Weather History Graph

Daily Weather History Graph

Search for Another Location

Airport or City:

Trip Planner

Search our weather history database for the weather conditions in past years. The results will help you decide how hot, cold, wet, or windy it might be!

Date:

Astronomy

Jan. 11, 2013 Rise Set
Actual Time 7:22 AM PST 5:10 PM PST
Civil Twilight 6:53 AM PST 5:39 PM PST
Nautical Twilight 6:21 AM PST 6:11 PM PST
Astronomical Twilight 5:50 AM PST 6:42 PM PST
Moon 7:00 AM PST (1/11) 5:33 PM PST (1/11)
Length of Visible Light 10h 45m
Length of Day
9h 48m
New Moon, 0% of the Moon is Illuminated
Jan 11
New Moon
Jan 18
First Quarter
Jan 26
Full
Feb 3
Last Quarter
Feb 9
New

Hourly Weather History & Observations

Time (PST) Temp. Windchill Dew Point Humidity Pressure Visibility Wind Dir Wind Speed Gust Speed Precip Events Conditions
12:56 AM 37.9 °F 35.5 °F 32.0 °F 79% 30.23 in 10.0 mi ESE 3.5 mph - N/A   Clear
1:56 AM 37.9 °F - 33.1 °F 83% 30.23 in 10.0 mi Calm Calm - N/A   Clear
2:56 AM 37.0 °F 34.5 °F 32.0 °F 82% 30.22 in 10.0 mi Variable 3.5 mph - N/A   Clear
3:56 AM 39.0 °F 35.7 °F 33.1 °F 79% 30.22 in 10.0 mi West 4.6 mph - N/A   Clear
4:56 AM 37.9 °F - 32.0 °F 79% 30.23 in 10.0 mi Calm Calm - N/A   Clear
5:56 AM 35.1 °F 32.2 °F 30.9 °F 85% 30.25 in 10.0 mi ESE 3.5 mph - N/A   Clear
6:56 AM 37.0 °F - 33.1 °F 86% 30.27 in 10.0 mi Calm Calm - N/A   Clear
7:56 AM 37.9 °F - 32.0 °F 79% 30.28 in 10.0 mi Calm Calm - N/A   Clear
8:56 AM 42.1 °F - 35.1 °F 76% 30.30 in 10.0 mi Calm Calm - N/A   Clear
9:56 AM 46.0 °F - 33.1 °F 61% 30.29 in 10.0 mi Calm Calm - N/A   Partly Cloudy
10:56 AM 48.0 °F - 33.1 °F 56% 30.28 in 10.0 mi Calm Calm - N/A   Partly Cloudy
11:56 AM 48.9 °F - 34.0 °F 56% 30.24 in 10.0 mi NNE 4.6 mph - N/A   Partly Cloudy
12:56 PM 50.0 °F - 34.0 °F 54% 30.21 in 10.0 mi NNE 3.5 mph - N/A   Scattered Clouds
1:56 PM 50.0 °F - 35.1 °F 57% 30.19 in 10.0 mi NNE 3.5 mph - N/A   Overcast
2:56 PM 50.0 °F - 37.0 °F 61% 30.18 in 10.0 mi North 6.9 mph - N/A   Overcast
3:56 PM 52.0 °F - 37.9 °F 59% 30.17 in 10.0 mi WNW 10.4 mph - N/A   Mostly Cloudy
4:56 PM 50.0 °F - 37.9 °F 63% 30.17 in 10.0 mi WNW 9.2 mph - N/A   Scattered Clouds
5:56 PM 48.0 °F - 39.0 °F 71% 30.17 in 10.0 mi NW 4.6 mph - N/A   Scattered Clouds
6:56 PM 46.9 °F - 39.0 °F 74% 30.17 in 10.0 mi WNW 3.5 mph - N/A   Clear
7:56 PM 46.9 °F - 39.0 °F 74% 30.16 in 10.0 mi West 4.6 mph - N/A   Clear
8:56 PM 45.0 °F - 39.0 °F 80% 30.17 in 10.0 mi Calm Calm - N/A   Scattered Clouds
9:40 PM 44.6 °F 37.8 °F 37.4 °F 76% 30.18 in 10.0 mi NE 15.0 mph 23.0 mph N/A   Overcast
9:56 PM 44.1 °F 40.8 °F 36.0 °F 73% 30.19 in 10.0 mi NE 5.8 mph - N/A   Overcast
10:22 PM 44.6 °F 43.1 °F 35.6 °F 71% 30.18 in 10.0 mi WSW 3.5 mph - N/A   Overcast
10:56 PM 44.1 °F 42.5 °F 35.1 °F 71% 30.19 in 10.0 mi SW 3.5 mph - N/A   Partly Cloudy
11:56 PM 39.9 °F 37.8 °F 34.0 °F 79% 30.20 in 10.0 mi North 3.5 mph - N/A   Clear